Tracking 19847 objects as of 17-Sep-2019
HD Live streaming from Space Station
objects crossing your sky now

SL-8 DEB

Track SL-8 DEB now!
10-day predictions


NORAD ID: 5778
Int'l Code: 1971-114C
Perigee: 658.2 km
Apogee: 669.7 km
Inclination: 74.0 °
Period: 97.9 minutes
Semi major axis: 7034 km
RCS: 0.0065 m2 (small)
Launch date: December 17, 1971
Source: Commonwealth of Independent States (former USSR) (CIS)
Launch site: PLESETSK MISSILE AND SPACE COMPLEX (PKMTR)

Note: This is SATELLITE DEBRIS
aabbcc
Your satellite tracking list
Your tracking list is empty




NASA's NSSDC Master Catalog

Two Line Element Set (TLE):
1  5778U 71114C   19259.81576890  .00000302  00000-0  54108-4 0  9998
2  5778  74.0129 160.1666 0008159 142.9921 217.1815 14.71342057535180
Source of the keplerian elements: AFSPC